When you browse on this site, cookies collect data to enhance your experience and personalize the content and advertising you see.
Visit our Privacy Policy to learn more. By continuing to use the site, you agree to this use of cookies and data.
  • In Hungary
  • List of Countries
  • For 7 days
  • Water Temperature
  • Satellite Maps
  • Weather Map
  • News
  • Weather Widgets
  • user-avatar
    Login

    Hourly Weather Charlotte

    Today, 19 December, Wednesday

    Time Temperature Precipitation Wind Pressure Humidity
    00:00 +6°C° 0 mm 1 mps 746 mmHg 70%
    01:00 +6°C° 0 mm 1 mps 746 mmHg 72%
    02:00 +5°C° 0 mm 1 mps 746 mmHg 74%
    03:00 +5°C° 0 mm 1 mps 746 mmHg 76%
    04:00 +5°C° 0 mm 1 mps 746 mmHg 77%
    05:00 +4°C° 0 mm 1 mps 746 mmHg 77%
    06:00 +4°C° 0 mm 1 mps 746 mmHg 78%
    07:00 +3°C° 0 mm 0 mps 746 mmHg 78%
    08:00 +4°C° 0 mm 0 mps 746 mmHg 73%
    09:00 +6°C° 0 mm 0 mps 746 mmHg 69%
    10:00 +8°C° 0 mm 1 mps 747 mmHg 64%
    11:00 +9°C° 0 mm 1 mps 746 mmHg 62%
    12:00 +11°C° 0 mm 1 mps 746 mmHg 59%
    13:00 +12°C° 0 mm 1 mps 745 mmHg 57%
    14:00 +12°C° 0 mm 1 mps 745 mmHg 59%
    15:00 +12°C° 0 mm 1 mps 744 mmHg 62%
    16:00 +12°C° 0 mm 1 mps 744 mmHg 65%
    17:00 +11°C° 0 mm 1 mps 744 mmHg 71%
    18:00 +10°C° 0 mm 1 mps 744 mmHg 76%
    19:00 +8°C° 0 mm 1 mps 744 mmHg 81%
    20:00 +8°C° 0 mm 1 mps 744 mmHg 83%
    21:00 +8°C° 0 mm 1 mps 744 mmHg 84%
    22:00 +9°C° 0 mm 1 mps 744 mmHg 86%
    23:00 +9°C° 0 mm 1 mps 743 mmHg 87%

    Tomorrow, 20 December, Thursday

    Time Temperature Precipitation Wind Pressure Humidity
    00:00 +9°C° 0 mm 1 mps 743 mmHg 87%
    01:00 +9°C° 0 mm 1 mps 743 mmHg 88%
    02:00 +9°C° 0 mm 1 mps 742 mmHg 89%
    03:00 +9°C° 0 mm 1 mps 742 mmHg 90%
    04:00 +9°C° 0 mm 1 mps 742 mmHg 92%
    05:00 +9°C° 0 mm 1 mps 741 mmHg 93%
    06:00 +9°C° 0 mm 1 mps 741 mmHg 94%
    07:00 +8°C° 0 mm 2 mps 741 mmHg 95%
    08:00 +9°C° 0 mm 2 mps 740 mmHg 94%
    09:00 +10°C° 0 mm 2 mps 740 mmHg 93%
    10:00 +10°C° 0 mm 2 mps 740 mmHg 92%
    11:00 +10°C° 0.9 mm 2 mps 739 mmHg 93%
    12:00 +10°C° 0.9 mm 2 mps 738 mmHg 93%
    13:00 +11°C° 0.9 mm 3 mps 737 mmHg 94%
    14:00 +11°C° 1.4 mm 3 mps 736 mmHg 94%
    15:00 +11°C° 1.4 mm 3 mps 734 mmHg 95%
    16:00 +11°C° 1.4 mm 3 mps 733 mmHg 95%
    17:00 +11°C° 0.9 mm 3 mps 732 mmHg 96%
    18:00 +11°C° 0.9 mm 3 mps 732 mmHg 96%
    19:00 +11°C° 0.9 mm 3 mps 731 mmHg 97%
    20:00 +11°C° 1.4 mm 3 mps 730 mmHg 97%
    21:00 +12°C° 1.4 mm 2 mps 729 mmHg 98%
    22:00 +13°C° 1.4 mm 1 mps 728 mmHg 98%
    23:00 +13°C° 0.8 mm 1 mps 728 mmHg 98%

    Day after tomorrow, 21 December, Friday

    Time Temperature Precipitation Wind Pressure Humidity
    00:00 +13°C° 0.8 mm 2 mps 727 mmHg 98%
    01:00 +14°C° 0.8 mm 2 mps 726 mmHg 98%
    02:00 +14°C° 0.2 mm 2 mps 726 mmHg 97%
    03:00 +13°C° 0.2 mm 3 mps 725 mmHg 97%
    04:00 +13°C° 0.2 mm 3 mps 724 mmHg 96%
    05:00 +13°C° 0.2 mm 4 mps 724 mmHg 93%
    06:00 +13°C° 0.2 mm 4 mps 724 mmHg 91%
    07:00 +12°C° 0.2 mm 5 mps 724 mmHg 88%
    08:00 +11°C° 0.1 mm 6 mps 724 mmHg 85%
    09:00 +11°C° 0.1 mm 6 mps 725 mmHg 82%
    10:00 +10°C° 0.1 mm 7 mps 725 mmHg 79%
    11:00 +10°C° 0.4 mm 7 mps 724 mmHg 77%
    12:00 +10°C° 0.4 mm 6 mps 724 mmHg 75%
    13:00 +10°C° 0.4 mm 6 mps 723 mmHg 74%
    14:00 +10°C° 0.2 mm 6 mps 724 mmHg 75%
    15:00 +10°C° 0.2 mm 6 mps 724 mmHg 76%
    16:00 +9°C° 0.2 mm 6 mps 724 mmHg 77%
    17:00 +9°C° 0.1 mm 5 mps 725 mmHg 78%
    18:00 +8°C° 0.1 mm 5 mps 726 mmHg 78%
    19:00 +8°C° 0.1 mm 5 mps 727 mmHg 78%
    20:00 +7°C° 0 mm 4 mps 728 mmHg 77%
    21:00 +6°C° 0 mm 4 mps 729 mmHg 76%
    22:00 +6°C° 0 mm 4 mps 730 mmHg 74%
    23:00 +5°C° 0 mm 4 mps 731 mmHg 75%

    22 December, Saturday

    Time Temperature Precipitation Wind Pressure Humidity
    00:00 +5°C° 0 mm 5 mps 731 mmHg 75%
    01:00 +5°C° 0 mm 5 mps 732 mmHg 75%
    02:00 +4°C° 0 mm 4 mps 733 mmHg 75%
    03:00 +4°C° 0 mm 4 mps 734 mmHg 75%
    04:00 +3°C° 0 mm 4 mps 735 mmHg 75%
    05:00 +3°C° 0 mm 4 mps 736 mmHg 76%
    06:00 +2°C° 0 mm 3 mps 736 mmHg 76%
    07:00 +2°C° 0 mm 3 mps 737 mmHg 77%
    08:00 +3°C° 0 mm 3 mps 738 mmHg 71%
    09:00 +3°C° 0 mm 4 mps 739 mmHg 65%
    10:00 +4°C° 0 mm 4 mps 740 mmHg 59%
    11:00 +6°C° 0 mm 4 mps 740 mmHg 54%
    12:00 +7°C° 0 mm 4 mps 740 mmHg 50%
    13:00 +8°C° 0 mm 4 mps 740 mmHg 45%
    14:00 +8°C° 0 mm 4 mps 740 mmHg 46%
    15:00 +9°C° 0 mm 3 mps 741 mmHg 47%
    16:00 +9°C° 0 mm 3 mps 741 mmHg 48%
    17:00 +8°C° 0 mm 3 mps 742 mmHg 53%
    18:00 +7°C° 0 mm 2 mps 742 mmHg 58%
    19:00 +5°C° 0 mm 2 mps 743 mmHg 63%
    20:00 +5°C° 0 mm 2 mps 743 mmHg 65%
    21:00 +4°C° 0 mm 2 mps 744 mmHg 66%
    22:00 +4°C° 0 mm 2 mps 744 mmHg 67%
    23:00 +4°C° 0 mm 2 mps 744 mmHg 68%

    23 December, Sunday

    Time Temperature Precipitation Wind Pressure Humidity
    00:00 +3°C° 0 mm 2 mps 744 mmHg 68%
    01:00 +3°C° 0 mm 2 mps 744 mmHg 69%
    02:00 +3°C° 0 mm 2 mps 744 mmHg 69%
    03:00 +3°C° 0 mm 2 mps 744 mmHg 69%
    04:00 +2°C° 0 mm 2 mps 744 mmHg 69%
    05:00 +2°C° 0 mm 2 mps 744 mmHg 70%
    06:00 +2°C° 0 mm 2 mps 744 mmHg 72%
    07:00 +3°C° 0 mm 1 mps 745 mmHg 73%
    08:00 +4°C° 0 mm 2 mps 745 mmHg 69%
    09:00 +5°C° 0 mm 2 mps 745 mmHg 65%
    10:00 +7°C° 0 mm 2 mps 745 mmHg 61%
    11:00 +9°C° 0 mm 3 mps 745 mmHg 59%
    12:00 +10°C° 0 mm 3 mps 744 mmHg 56%
    13:00 +12°C° 0 mm 4 mps 744 mmHg 53%
    14:00 +12°C° 0 mm 3 mps 744 mmHg 57%
    15:00 +13°C° 0 mm 3 mps 743 mmHg 61%
    16:00 +14°C° 0 mm 2 mps 743 mmHg 65%
    17:00 +12°C° 0 mm 3 mps 743 mmHg 72%
    18:00 +10°C° 0 mm 3 mps 744 mmHg 80%
    19:00 +9°C° 0 mm 3 mps 744 mmHg 88%
    20:00 +8°C° 0 mm 3 mps 744 mmHg 90%
    21:00 +8°C° 0 mm 3 mps 744 mmHg 92%
    22:00 +8°C° 0 mm 3 mps 744 mmHg 94%
    23:00 +8°C° 0 mm 2 mps 744 mmHg 95%

    24 December, Monday

    Time Temperature Precipitation Wind Pressure Humidity
    00:00 +8°C° 0 mm 2 mps 744 mmHg 96%
    01:00 +7°C° 0 mm 2 mps 744 mmHg 96%
    02:00 +7°C° 0 mm 2 mps 744 mmHg 94%
    03:00 +7°C° 0 mm 2 mps 744 mmHg 92%
    04:00 +7°C° 0 mm 2 mps 745 mmHg 89%
    05:00 +6°C° 0 mm 2 mps 745 mmHg 86%
    06:00 +5°C° 0 mm 2 mps 746 mmHg 82%
    07:00 +4°C° 0 mm 2 mps 746 mmHg 78%
    08:00 +4°C° 0 mm 2 mps 747 mmHg 72%
    09:00 +5°C° 0 mm 2 mps 747 mmHg 65%
    10:00 +6°C° 0 mm 2 mps 748 mmHg 58%
    11:00 +7°C° 0 mm 2 mps 747 mmHg 52%
    12:00 +8°C° 0 mm 2 mps 747 mmHg 46%
    13:00 +10°C° 0 mm 2 mps 746 mmHg 40%
    14:00 +10°C° 0 mm 2 mps 746 mmHg 41%
    15:00 +10°C° 0 mm 2 mps 746 mmHg 42%
    16:00 +11°C° 0 mm 1 mps 746 mmHg 42%
    17:00 +9°C° 0 mm 1 mps 747 mmHg 46%
    18:00 +7°C° 0 mm 1 mps 747 mmHg 49%
    19:00 +6°C° 0 mm 1 mps 748 mmHg 53%
    20:00 +5°C° 0 mm 1 mps 748 mmHg 55%
    21:00 +5°C° 0 mm 1 mps 748 mmHg 56%
    22:00 +4°C° 0 mm 1 mps 749 mmHg 58%
    23:00 +4°C° 0 mm 1 mps 749 mmHg 60%
    Show more